Regional Weather Roundup
Issued by NWS Albany, NY

Home | Current Version | Previous Version | Text Only | Print | Product List | Glossary On
Versions: 1 2 3 4 5 6 7 8 9 10 11 12 13 14 15 16 17 18 19 20 21 22 23 24 25 26 27 28 29 30 31 32 33 34 35 36 37 38 39 40 41 42 43 44 45 46 47 48 49 50
000
ASUS41 KALY 181610
RWRALY

NEW YORK STATE HOURLY WEATHER ROUNDUP
NATIONAL WEATHER SERVICE ALBANY NY
1100 AM EST THU JAN 18 2018

NOTE: "FAIR" INDICATES FEW OR NO CLOUDS BELOW 12,000 FEET WITH NO
SIGNIFICANT WEATHER AND/OR NO OBSTRUCTIONS TO VISIBILITY.

NYZ032-033-038>043-046>054-057>066-NYZ062>081-082-084-181700-
EAST


CITY           SKY/WX    TMP DP  RH WIND       PRES   REMARKS
ALBANY         PTSUNNY   20   8  60 NW14      30.07F WCI   7
GLENS FALLS    FAIR      12   9  87 S6        30.02F WCI   3
POUGHKEEPSIE   FAIR      20  12  71 N3        30.07R
NEWBURGH       SUNNY     23  14  68 CALM      30.05S
MONTGOMERY     FAIR      21   8  57 E3        30.03S
WHITE PLAINS   FAIR      23  11  60 NW16      30.00F WCI  10
ISLIP          FAIR      29  14  53 NW14      30.00F WCI  18
NEW YORK CITY  FAIR      28   8  43 NW10      30.04F WCI  19
CENTRAL PARK   FAIR      26   7  44 W8        30.06F WCI  18
$$

NYZ005>009-017-018-044>046-055-056-181700-
CENTRAL


CITY           SKY/WX    TMP DP  RH WIND       PRES   REMARKS
FULTON         CLOUDY    19  10  68 SW12      30.05F WCI   7
SYRACUSE       CLOUDY    18  10  71 SW20      30.06F WCI   2
ROME           LGT SNOW  13   9  84 NW5       30.08F FOG     WCI   5
ELMIRA         FAIR      19   7  59 W10G18    30.07S WCI   7
BINGHAMTON     FAIR      14   5  67 W12       29.98S WCI   0
MONTICELLO     FAIR      22   8  55 W8        29.98S WCI  12
$$

NYZ026>034-041>043-087-181700-
NORTH


CITY           SKY/WX    TMP DP  RH WIND       PRES   REMARKS
WATERTOWN      CLOUDY    19  16  88 S10       30.01S FOG     WCI   7
FORT DRUM      NOT AVBL
OGDENSBURG     FLURRIES  27  21  79 SW5       29.97S WCI  21
MASSENA        NOT AVBL
SARANAC LAKE   CLOUDY    19  15  84 SW12G17   29.87S WCI   7
PLATTSBURGH    CLOUDY    22  16  78 S9        29.95F WCI  12
$$

NYZ001>004-010>016-019>021-085-181700-
WEST


CITY           SKY/WX    TMP DP  RH WIND       PRES   REMARKS
NIAGARA FALLS  LGT SNOW  22  14  71 SW20      30.07R WCI   7
BUFFALO        SNOW      18  14  84 SW21G36   30.08R VSB 1/2 WCI   1
DUNKIRK        LGT SNOW  18  10  71 SW20G28   30.12S WCI   2
JAMESTOWN      LGT SNOW  12   6  77 SW14      30.05F WCI  -3
WELLSVILLE     CLOUDY    12   5  73 SW12G21   30.00S HAZE    WCI  -2
ROCHESTER      FLURRIES  20  14  77 W15       30.07R WCI   6
PENN YAN       CLOUDY    19   7  59 W13       30.07R WCI   6
$$

             KEY
       WCI = WIND CHILL INDEX
       VSB = VISIBILITY
       HX  = HEAT INDEX
$$



USA.gov is the U.S. government's official web portal to all federal, state and local government web resources and services.